Regional Weather Roundup
Issued by NWS

Home | Current Version | Previous Version | Text Only | Print | Product List | Glossary Off
Versions: 1 2 3 4 5 6 7 8 9 10 11 12 13 14 15 16 17 18 19 20 21 22 23 24 25 26 27 28 29 30 31 32 33 34 35 36 37 38 39 40 41 42 43 44 45 46 47 48 49 50

000
ASUS43 KMKX 270159
RWRWI

WISCONSIN REGIONAL WEATHER ROUNDUP
NATIONAL WEATHER SERVICE MILWAUKEE/SULLIVAN WI
800 PM CST MON JAN 26 2015

NOTE: "FAIR" INDICATES FEW OR NO CLOUDS BELOW 12,000 FEET WITH NO
SIGNIFICANT WEATHER AND/OR OBSTRUCTIONS TO VISIBILITY.

WIZ001-002-006>008-014>016-023>028-270300-
NORTHWEST WISCONSIN

CITY           SKY/WX    TMP DP  RH WIND       PRES   REMARKS
SUPERIOR ARPT  CLOUDY    30  28  92 NW6       29.90R WCI  24
ASHLAND        CLOUDY    24  23  96 NW3       29.89R
HAYWARD        CLOUDY    25  23  92 CALM      29.85R FOG
SIREN          LGT SNOW  33  32  95 N6        29.88R WCI  28
CUMBERLAND     LGT SNOW  30  28  93 N7        29.84S WCI  23
RICE LAKE      CLOUDY    27  26  94 CALM      29.86R FOG
CHETEK         CLOUDY    26  25  96 CALM      29.85R FOG
LADYSMITH      CLOUDY    24  23  93 CALM      29.86R
EAU CLAIRE     CLOUDY    27  25  93 CALM      29.86R
MENOMONIE      CLOUDY    30  29  96 CALM      29.86R FOG
NEW RICHMOND   CLOUDY    37  30  77 NW8       29.86R WCI  30
OSCEOLA        CLOUDY    38  30  74 NW8       29.89R WCI  32
$$

WIZ003>005-009-010-017-018-270300-
NORTH CENTRAL WISCONSIN

CITY           SKY/WX    TMP DP  RH WIND       PRES   REMARKS
MANITOWISH WTR CLOUDY    19  17  92 S3        29.83R
ARBOR VITAE    FLURRIES  22  19  87 CALM      29.83R
WOODRUFF       FLURRIES  22  19  87 CALM      29.83R
RHINELANDER    CLOUDY    19  17  92 CALM      29.84R
EAGLE RIVER    LGT SNOW  20  16  84 CALM      29.83R
LAND O LAKES   FLURRIES  20  17  89 CALM      29.84R
PHILLIPS       CLOUDY    20  18  90 CALM      29.83R
TOMAHAWK       CLOUDY    19  17  91 CALM      29.85R
MEDFORD        CLOUDY    20  19  92 CALM      29.83R
MERRILL        CLOUDY    21  19  93 CALM      29.84R
$$

WIZ029-030-035-036-043>047-270300-
CENTRAL WISCONSIN

CITY           SKY/WX    TMP DP  RH WIND       PRES   REMARKS
WAUSAU         LGT SNOW  21  19  92 SE3       29.84R FOG
MOSINEE        LGT SNOW  21  21 100 CALM      29.85S
MARSHFIELD     CLOUDY    23  21  92 CALM      29.85R
STEVENS POINT  MIX PCPN  20  19  96 CALM      29.86R
WAUPACA        LGT SNOW  25  23  90 CALM      29.88S
WAUTOMA        LGT SNOW  25  23  93 CALM      29.88S FOG
WISC RAPIDS    LGT SNOW  23  20  88 CALM      29.87R FOG
CAMP DOUGLAS   NOT AVBL
$$

WIZ011>013-019>022-031-037>040-048>050-270300-
NORTHEAST WISCONSIN

CITY           SKY/WX    TMP DP  RH WIND       PRES   REMARKS
ANTIGO         LGT SNOW  19  18  96 SE7       29.84R WCI  10
SHAWANO        FLURRIES  26  23  89 CALM      29.90R
OCONTO         CLOUDY    25  22  89 CALM      29.91S
STURGEON BAY   CLOUDY    25  18  74 SE8       29.94S WCI  16
GREEN BAY      LGT SNOW  25  22  88 CALM      29.91R FOG
MANITOWOC      NOT AVBL
APPLETON       LGT SNOW  23  23 100 SE6       29.89R VSB 1   WCI  16
CLINTONVILLE   FLURRIES  25  21  86 E3        29.89R
OSHKOSH        CLOUDY    24  21  88 SE3       29.88S
$$

WIZ032>034-041-042-053>061-270300-
SOUTHWEST WISCONSIN

CITY           SKY/WX    TMP DP  RH WIND       PRES   REMARKS
LA CROSSE      CLOUDY    30  26  85 S3        29.86R
SPARTA         CLOUDY    27  26  99 CALM      29.87R
VIROQUA        CLOUDY    26  26 100 CALM      29.83R
BOSCOBEL       CLOUDY    27  24  89 CALM      29.88R FOG
PRAIRIE DU CHI CLOUDY    29  25  86 CALM      29.87R FOG
PLATTEVILLE    CLOUDY    26  25  96 CALM      29.85S
$$

WIZ056-057-062-063-064-067-068-270300-
SOUTH CENTRAL WISCONSIN

CITY           SKY/WX    TMP DP  RH WIND       PRES   REMARKS
REEDSBURG      MIX PCPN  24  23  96 S3        29.85S
BARABOO/DELLS  SNOW      23  22  94 S3        29.85S VSB 1/2
LONE ROCK      NOT AVBL
MINERAL POINT  CLOUDY    27  25  93 SE3       29.84S FOG
MADISON        LGT SNOW  24  22  91 S6        29.87R FOG     WCI  17
MIDDLETON      CLOUDY    26  25  96 S5        29.87R WCI  20
WATERTOWN      CLOUDY    24  24  99 S6        29.87S WCI  17
MONROE         CLOUDY    25  25 100 S6        29.85S FOG     WCI  18
JANESVILLE     CLOUDY    27  25  93 S6        29.88S FOG     WCI  20
$$

WIZ051-052-058>065-066-070>072-270300-
SOUTHEAST WISCONSIN

CITY           SKY/WX    TMP DP  RH WIND       PRES   REMARKS
MILWAUKEE      LGT SNOW  25  21  85 SE6       29.90S WCI  18
WAUKESHA       LGT SNOW  23  21  93 SE7       29.89R WCI  15
MILWAUKEE/TIMM LGT SNOW  25  21  86 SE7       29.90R WCI  17
RACINE         LGT SNOW  27  23  85 S6        29.91S FOG     WCI  20
BURLINGTON     LGT SNOW  23  22  96 S6        29.89R WCI  16
KENOSHA        LGT SNOW  26  23  88 SE5       29.89S FOG     WCI  20
FOND DU LAC    LGT SNOW  24  21  88 S5        29.88S FOG     WCI  18
SHEBOYGAN      FLURRIES  26  21  81 S6        29.90R WCI  19
WEST BEND      LGT SNOW  25  21  86 SE3       29.88S
JUNEAU         LGT SNOW  24  23  95 S8        29.88S WCI  15
$$

LSZ147-162-270300-
LAKE SUPERIOR

STATION/POSITION TIME  TEMP    WIND        PRES    WAVE
                       AIR SEA DIR/SP/G            HT/PER
                 (UTC) (F)     (DEG/KT/KT) (MB)    (FT/S)
DEVILS ISLAND    0100   26     270/  2/  2 1012.6R
PORT WING        0100   27      80/  2/  4 1011.9
SAXON HARBOR     0100   24        CALM     1011.5R
$$

LMZ867-665-643>646-270300-
LAKE MICHIGAN

STATION/POSITION TIME  TEMP    WIND        PRES    WAVE
                       AIR SEA DIR/SP/G            HT/PER
                 (UTC) (F)     (DEG/KT/KT) (MB)    (FT/S)
NORTHPORT PIER   0120   26     120/ 11/ 15 1014.2R
SISTER BAY       0113   25     150/  6/  9   N/A
KEWAUNEE LAKESHO 0100   28     170/ 13/ 18 1012.2R
SHEBOYGAN LAKESH 0100   28     150/ 17/ 19 1013.3S
PORT WASHINGTON  0100   28     160/  9/ 12 1013.5
MILWAUKEE LAKESH 0100   26     160/  8/ 10   N/A
KENOSHA   LAKESH 0100   27     170/  8/ 10 1012.9R
$$

TC  - TEMPERATURE IN CELSIUS
VSB - VISIBILITY IN STATUTE MILES
WCI - WIND CHILL INDEX
HX  - HEAT INDEX




USA.gov is the U.S. government's official web portal to all federal, state and local government web resources and services.